Weather in Sheremetyevo

Russia / Khabarovsk Krai     47°21′47″N   134°15′39″E
temp.,
°C
wind,
m/s
gust,
m/s
humid.,
%
clouds,
%
prec.,
mm/h
press.,
hPa
HPBL,
m
27 february, sat
sat2701:00−21sse22950 0.0 103520
04:00−22s22940 0.0 103521
07:00−22sse23930 0.0 103621
10:00−17sse46890 0.0 1035252
13:00−12sse598466 0.0 1033450
16:00−9sse6118383 0.0 1028554
19:00−9sse61581100 0.0 1025536
22:00−7sse51777100 0.0 1023637
28 february, sun
sun2801:00−7s71784100 0.0 1021448
04:00−5s71488100 0.0 1019534
07:00−3ssw51395100 0.9 1019730
10:00−2w5996100 1.7 1020619
13:00−4wnw4786100 0.2 1022617
16:00−7nw5878100 0.3 1023746
19:00−10wnw3982100 0.0 1026439
22:00−12wnw31081100 0.0 1028400
1 march, mon
mon101:00−16w2487100 0.0 102985
04:00−22wsw239167 0.0 103132
07:00−23wsw23910 0.0 103439
10:00−19wnw36800 0.0 1035441
13:00−15w35740 0.0 1035548
16:00−13w45670 0.0 10341061
19:00−19w22830 0.0 103420
22:00−22sse12810 0.0 103420
2 march, tue
tue201:00−23sse11810 0.0 103420
04:00−23sse118039 0.0 103320
07:00−22s1282100 0.0 103420
10:00−18n1187100 0.0 1033171
13:00−14n346924 0.0 1032680
16:00−14n346512 0.0 1031675
19:00−20nne12810 0.0 103120
22:00−23sse11770 0.0 103220
3 march, wed
wed301:00−24sse11800 0.0 103120
04:00−24sse12820 0.0 103120
07:00−24sse22800 0.0 103021
10:00−18sse36770 0.0 1029261
13:00−12sse597072 0.0 1025541
16:00−10sse597486 0.0 1021581
19:00−10s41280100 0.0 1019656
22:00−9s41391100 0.1 1018569